Time,TemperatureF,DewpointF,PressureIn,WindDirection,WindDirectionDegrees,WindSpeedMPH,WindSpeedGustMPH,Humidity,HourlyPrecipIn,Conditions,Clouds,dailyrainin,SolarRadiationWatts/m^2,SoftwareType,DateUTC
2013-06-23 00:00:00,60.0,59.0,-100.00,SE,135,0.0,-999.0,96,-99.99,,,-99.99,0.000000,,2013-06-23 04:00:00,
2013-06-23 00:31:00,60.0,59.0,-100.00,SE,135,0.0,-999.0,96,-99.99,,,-99.99,0.000000,,2013-06-23 04:31:00,
2013-06-23 00:42:00,60.0,59.0,-100.00,SE,135,0.0,-999.0,96,-99.99,,,-99.99,0.000000,,2013-06-23 04:42:00,
2013-06-23 00:52:00,60.0,59.0,-100.00,SE,135,0.0,-999.0,96,-99.99,,,-99.99,0.000000,,2013-06-23 04:52:00,
2013-06-23 01:00:00,61.0,59.0,-100.00,SSE,157,2.0,-999.0,94,-99.99,,,-99.99,0.000000,,2013-06-23 05:00:00,
2013-06-23 01:42:00,61.0,59.0,-100.00,SSE,157,2.0,-999.0,94,-99.99,,,-99.99,0.000000,,2013-06-23 05:42:00,
2013-06-23 01:52:00,61.0,59.0,-100.00,SSE,157,2.0,-999.0,94,-99.99,,,-99.99,0.000000,,2013-06-23 05:52:00,
2013-06-23 02:00:00,61.0,59.0,-100.00,SE,135,3.0,-999.0,94,-99.99,,,-99.99,0.000000,,2013-06-23 06:00:00,
2013-06-23 02:43:00,61.0,59.0,-100.00,SE,135,3.0,-999.0,94,-99.99,,,-99.99,0.000000,,2013-06-23 06:43:00,
2013-06-23 02:52:00,61.0,59.0,-100.00,SE,135,3.0,-999.0,94,-99.99,,,-99.99,0.000000,,2013-06-23 06:52:00,
2013-06-23 03:00:00,64.0,62.0,-100.00,SSE,157,4.0,-999.0,91,-99.99,,,-99.99,0.000000,,2013-06-23 07:00:00,
2013-06-23 03:43:00,64.0,62.0,-100.00,SSE,157,4.0,-999.0,91,-99.99,,,-99.99,0.000000,,2013-06-23 07:43:00,
2013-06-23 03:53:00,64.0,62.0,-100.00,SSE,157,4.0,-999.0,91,-99.99,,,-99.99,0.000000,,2013-06-23 07:53:00,
2013-06-23 04:00:00,65.0,62.0,-100.00,SW,225,3.0,-999.0,90,0.02,,,-99.99,0.000000,,2013-06-23 08:00:00,
2013-06-23 04:43:00,65.0,62.0,-100.00,SW,225,3.0,-999.0,90,0.02,,,-99.99,0.000000,,2013-06-23 08:43:00,
2013-06-23 04:53:00,65.0,62.0,-100.00,SW,225,3.0,-999.0,90,0.02,,,-99.99,0.000000,,2013-06-23 08:53:00,
2013-06-23 05:00:00,64.0,63.0,-100.00,SE,135,3.0,-999.0,96,-99.99,,,-99.99,0.000000,,2013-06-23 09:00:00,
2013-06-23 05:43:00,64.0,63.0,-100.00,SE,135,3.0,-999.0,96,-99.99,,,-99.99,0.000000,,2013-06-23 09:43:00,
2013-06-23 05:54:00,64.0,63.0,-100.00,SE,135,3.0,-999.0,96,-99.99,,,-99.99,0.000000,,2013-06-23 09:54:00,
2013-06-23 06:00:00,64.0,63.0,-100.00,SSE,157,4.0,-999.0,96,-99.99,,,-99.99,0.000000,,2013-06-23 10:00:00,
2013-06-23 06:43:00,64.0,63.0,-100.00,SSE,157,4.0,-999.0,96,-99.99,,,-99.99,0.000000,,2013-06-23 10:43:00,
2013-06-23 06:53:00,64.0,63.0,-100.00,SSE,157,4.0,-999.0,96,-99.99,,,-99.99,0.000000,,2013-06-23 10:53:00,
2013-06-23 07:00:00,66.0,65.0,-100.00,South,180,3.0,-999.0,96,-99.99,,,-99.99,17.400000,,2013-06-23 11:00:00,
2013-06-23 07:33:00,66.0,65.0,-100.00,South,180,3.0,-999.0,96,-99.99,,,-99.99,17.400000,,2013-06-23 11:33:00,
2013-06-23 07:43:00,66.0,65.0,-100.00,South,180,3.0,-999.0,96,-99.99,,,-99.99,17.400000,,2013-06-23 11:43:00,
2013-06-23 07:53:00,66.0,65.0,-100.00,South,180,3.0,-999.0,96,-99.99,,,-99.99,17.400000,,2013-06-23 11:53:00,
2013-06-23 08:00:00,67.0,66.0,-100.00,SSW,202,2.0,-999.0,95,-99.99,,,-99.99,46.400002,,2013-06-23 12:00:00,
2013-06-23 08:43:00,67.0,66.0,-100.00,SSW,202,2.0,-999.0,95,-99.99,,,-99.99,46.400002,,2013-06-23 12:43:00,
2013-06-23 08:53:00,67.0,66.0,-100.00,SSW,202,2.0,-999.0,95,-99.99,,,-99.99,46.400002,,2013-06-23 12:53:00,
2013-06-23 09:00:00,60.0,59.0,-100.00,WSW,247,5.0,-999.0,96,-99.99,,,-99.99,63.799999,,2013-06-23 13:00:00,
2013-06-23 09:43:00,60.0,59.0,-100.00,WSW,247,5.0,-999.0,96,-99.99,,,-99.99,63.799999,,2013-06-23 13:43:00,
2013-06-23 09:54:00,60.0,59.0,-100.00,WSW,247,5.0,-999.0,96,-99.99,,,-99.99,63.799999,,2013-06-23 13:54:00,
2013-06-23 10:00:00,60.0,60.0,-100.00,West,270,4.0,-999.0,97,-99.99,,,-99.99,136.880005,,2013-06-23 14:00:00,
2013-06-23 10:44:00,60.0,60.0,-100.00,West,270,4.0,-999.0,97,-99.99,,,-99.99,136.880005,,2013-06-23 14:44:00,
2013-06-23 10:52:00,60.0,60.0,-100.00,West,270,4.0,-999.0,97,-99.99,,,-99.99,136.880005,,2013-06-23 14:52:00,
2013-06-23 11:00:00,62.0,62.0,-100.00,SW,225,4.0,-999.0,97,-99.99,,,-99.99,190.240005,,2013-06-23 15:00:00,
2013-06-23 11:43:00,62.0,62.0,-100.00,SW,225,4.0,-999.0,97,-99.99,,,-99.99,190.240005,,2013-06-23 15:43:00,
2013-06-23 11:53:00,62.0,62.0,-100.00,SW,225,4.0,-999.0,97,-99.99,,,-99.99,190.240005,,2013-06-23 15:53:00,
2013-06-23 12:00:00,67.0,65.0,-100.00,WSW,247,4.0,-999.0,93,-99.99,,,-99.99,310.880005,,2013-06-23 16:00:00,
2013-06-23 12:43:00,67.0,65.0,-100.00,WSW,247,4.0,-999.0,93,-99.99,,,-99.99,310.880005,,2013-06-23 16:43:00,
2013-06-23 12:53:00,67.0,65.0,-100.00,WSW,247,4.0,-999.0,93,-99.99,,,-99.99,310.880005,,2013-06-23 16:53:00,
2013-06-23 13:00:00,73.0,66.0,-100.00,WSW,247,5.0,-999.0,79,-99.99,,,-99.99,728.479980,,2013-06-23 17:00:00,
2013-06-23 13:34:00,73.0,66.0,-100.00,WSW,247,5.0,-999.0,79,-99.99,,,-99.99,728.479980,,2013-06-23 17:34:00,
2013-06-23 13:43:00,73.0,66.0,-100.00,WSW,247,5.0,-999.0,79,-99.99,,,-99.99,728.479980,,2013-06-23 17:43:00,
2013-06-23 13:53:00,73.0,66.0,-100.00,WSW,247,5.0,-999.0,79,-99.99,,,-99.99,728.479980,,2013-06-23 17:53:00,
2013-06-23 14:00:00,76.0,67.0,-100.00,South,180,3.0,-999.0,72,-99.99,,,-99.99,813.159973,,2013-06-23 18:00:00,
2013-06-23 14:43:00,76.0,67.0,-100.00,South,180,3.0,-999.0,72,-99.99,,,-99.99,813.159973,,2013-06-23 18:43:00,
2013-06-23 14:53:00,76.0,67.0,-100.00,South,180,3.0,-999.0,72,-99.99,,,-99.99,813.159973,,2013-06-23 18:53:00,
2013-06-23 15:00:00,79.0,67.0,-100.00,South,180,4.0,-999.0,67,-99.99,,,-99.99,803.880005,,2013-06-23 19:00:00,
2013-06-23 15:43:00,79.0,67.0,-100.00,South,180,4.0,-999.0,67,-99.99,,,-99.99,803.880005,,2013-06-23 19:43:00,
2013-06-23 15:53:00,79.0,67.0,-100.00,South,180,4.0,-999.0,67,-99.99,,,-99.99,803.880005,,2013-06-23 19:53:00,
2013-06-23 16:00:00,83.0,66.0,-100.00,SW,225,5.0,-999.0,57,-99.99,,,-99.99,791.119995,,2013-06-23 20:00:00,
2013-06-23 16:42:00,83.0,66.0,-100.00,SW,225,5.0,-999.0,57,-99.99,,,-99.99,791.119995,,2013-06-23 20:42:00,
2013-06-23 16:53:00,83.0,66.0,-100.00,SW,225,5.0,-999.0,57,-99.99,,,-99.99,791.119995,,2013-06-23 20:53:00,
2013-06-23 17:00:00,83.0,65.0,-100.00,SSW,202,4.0,-999.0,54,-99.99,,,-99.99,498.799988,,2013-06-23 21:00:00,
2013-06-23 17:44:00,83.0,65.0,-100.00,SSW,202,4.0,-999.0,54,-99.99,,,-99.99,498.799988,,2013-06-23 21:44:00,
2013-06-23 17:52:00,83.0,65.0,-100.00,SSW,202,4.0,-999.0,54,-99.99,,,-99.99,498.799988,,2013-06-23 21:52:00,